User: anonymous   Login
Location: Caltech
(34.1382°N, 118.1253°W)
Time: 04:01:24
(UTC-07:00)
Language:

deb Explorer IX - Orbit

View from above orbital plane
View from above orbital plane
View from above satellite
View from above satellite

Ground track
Ground track

The orbit data is extracted from the following two-line orbital elements,

1 00085U 61004C   14295.68339372  .00039166  00000-0  10198-1 0   598
2 00085 038.7698 047.7118 0446033 148.7589 214.0485 14.03033473638173
Epoch (UTC): 22 October 2014 16:24:05
Eccentricity: 0.0446033
inclination: 38.7698°
perigee height: 559 km
apogee height: 1207 km
right ascension of ascending node: 47.7118°
argument of perigee: 148.7589°
revolutions per day: 14.03033473
mean anomaly at epoch: 214.0485°
orbit number at epoch: 63817

The dashed part of the orbit path shows where the satellite is in the earth's shadow,  

DLR